Погода в Омише

Хорватия     43°26′29″N   16°41′10″E
темп.,
°C
ветер,
м/с
пор.,
м/с
влажн.,
%
обл.,
%
осадки,
мм/ч
давл.,
гПа
погр.,
м
9 декабря, чт
чт901:00+6юв102096100 7.8 10041285
04:00+10ююв132197100 12.4 10001521
07:00+10ю91498100 21.3 998989
10:00+7зсз7992100 14.5 1001599
13:00+5ссв2295100 22.5 1002416
16:00+4св3393100 3.3 1003158
19:00+5всв338923 3.4 1004107
22:00+4всв3290100 1.6 100587
10 декабря, пт
пт1001:00+5св3390100 3.8 1005106
04:00+4св2287100 0.4 100566
07:00+4ссв2284100 0.7 100484
10:00+5ссз2284100 0.7 1005197
13:00+3св229597 8.9 1005217
16:00+4всв229299 0.0 1004200
19:00+4в3489100 0.0 1004174
22:00+4в3590100 0.2 1003239
11 декабря, сб
сб1101:00+5в4994100 0.6 1002623
04:00+6св468199 0.6 999297
07:00+4св51079100 0.6 998400
10:00+6св61473100 0.6 10011018
13:00+6св61369100 0.6 1002992
16:00+4св61266100 0.0 1003606
19:00+4св71662100 0.0 1006643
22:00+3ссв8186174 0.0 1008703
12 декабря, вс
вс1201:00+3ссв6156162 0.0 1011760
04:00+2с4767100 0.0 1013362
07:00+1с36705 0.0 1016307
10:00+4с514566 0.0 10181585
13:00+5с512525 0.0 10181516
16:00+2с34645 0.0 1020286
19:000с33735 0.0 1022254
22:000ссз34744 0.0 1023161
13 декабря, пн
пн1301:00+1ссз357217 0.0 1022266
04:00+1ссз34735 0.0 1023164
07:00+2с3470100 0.0 1023191
10:00+4с345988 0.0 1023304
13:00+6с365099 0.0 1022762
16:00+3с226334 0.0 1022113
19:00+1ссв32698 0.0 102379
22:000ссв33690 0.0 102372